Ketchikan, AK

8:07 AM AKST on November 15, 2018 (GMT -0900)
Ketchikan International

Weather History for PAKT - November, 2017

Change the Weather History Date:

Friday, November 24, 2017

  Actual Average Record
Temperature  
Mean Temperature 40 °F -  
Max Temperature 44 °F 43 °F 56 °F (1954)
Min Temperature 37 °F 33 °F 14 °F (1955)
Degree Days  
Heating Degree Days 24    
Moisture  
Dew Point 37 °F    
Average Humidity 86    
Maximum Humidity 93    
Minimum Humidity 74    
Precipitation  
Precipitation 0.39 in - - ()
Sea Level Pressure  
Sea Level Pressure 29.42 in    
Wind  
Wind Speed 13 mph (SE)    
Max Wind Speed 24 mph    
Max Gust Speed 47 mph    
Visibility 8 miles    
Events Rain    
Averages and records for this station are not official NWS values.
T = Trace of Precipitation, MM = Missing Value Source: NWS Daily Summary

Daily Weather History Graph

Daily Weather History Graph

Search for Another Location

Airport or City:

Astronomy

Nov. 24, 2017 Rise Set
Actual Time 7:38 AM AKST 3:28 PM AKST
Civil Twilight 6:55 AM AKST 4:11 PM AKST
Nautical Twilight 6:09 AM AKST 4:57 PM AKST
Astronomical Twilight 5:25 AM AKST 5:41 PM AKST
Moon 12:13 PM AKST (11/24) 9:09 PM AKST (11/24)
Length of Visible Light 9h 15m
Length of Day
7h 49m
Waxing Crescent, 33% of the Moon is Illuminated
Nov 24
Waxing Crescent
Nov 26
First Quarter
Dec 3
Full
Dec 9
Last Quarter
Dec 17
New

Hourly Weather History & Observations

Time (AKST) Temp. Windchill Dew Point Humidity Pressure Visibility Wind Dir Wind Speed Gust Speed Precip Events Conditions
12:05 AM 43.0 °F 34.2 °F 41.0 °F 93% 29.31 in 3.0 mi SE 20.7 mph 29.9 mph 0.05 in Rain Rain
12:16 AM 43.0 °F 33.5 °F 41.0 °F 93% 29.31 in 2.0 mi SE 24.2 mph 47.2 mph 0.13 in Rain Heavy Rain
12:26 AM 43.0 °F 36.0 °F 39.9 °F 89% 29.31 in 3.0 mi SE 13.8 mph 31.1 mph 0.17 in Rain Rain
12:53 AM 42.1 °F 34.2 °F 39.9 °F 92% 29.31 in 8.0 mi SE 16.1 mph 25.3 mph 0.19 in Rain Light Rain
1:15 AM 41.0 °F 32.5 °F 39.0 °F 93% 29.30 in 9.0 mi SE 17.3 mph 24.2 mph 0.01 in Rain Light Rain
1:53 AM 42.1 °F 38.4 °F 39.0 °F 89% 29.30 in 10.0 mi SE 5.8 mph - 0.01 in   Mostly Cloudy
2:53 AM 44.1 °F 37.7 °F 37.0 °F 76% 29.28 in 10.0 mi SE 12.7 mph 21.9 mph N/A   Overcast
3:53 AM 42.1 °F 37.7 °F 36.0 °F 79% 29.30 in 10.0 mi SSE 6.9 mph - 0.00 in   Mostly Cloudy
4:53 AM 39.9 °F 33.9 °F 36.0 °F 86% 29.30 in 10.0 mi SE 9.2 mph - 0.01 in   Partly Cloudy
5:53 AM 39.9 °F 35.8 °F 36.0 °F 86% 29.30 in 10.0 mi SSE 5.8 mph - N/A   Overcast
6:03 AM 39.2 °F 35.9 °F 35.6 °F 87% 29.30 in 10.0 mi SSE 4.6 mph - N/A   Overcast
6:53 AM 39.2 °F - 35.6 °F 87% 29.32 in 10.0 mi Calm Calm - N/A Rain Light Rain
7:53 AM 37.4 °F 32.1 °F 35.6 °F 93% 29.34 in 10.0 mi SE 6.9 mph - N/A   Mostly Cloudy
8:29 AM 39.0 °F 32.8 °F 35.1 °F 86% 29.36 in 2.0 mi South 9.2 mph - 0.02 in Rain Rain
8:31 AM 37.4 °F 31.4 °F 35.6 °F 93% 29.36 in 4.0 mi South 8.1 mph - N/A Rain Rain
8:53 AM 37.4 °F 30.8 °F 33.8 °F 87% 29.37 in 10.0 mi SE 9.2 mph - N/A   Mostly Cloudy
9:53 AM 39.2 °F 33.0 °F 35.6 °F 87% 29.39 in 10.0 mi SE 9.2 mph - N/A   Mostly Cloudy
10:53 AM 39.2 °F 32.0 °F 35.6 °F 87% 29.41 in 10.0 mi SE 11.5 mph - N/A   Mostly Cloudy
11:53 AM 41.0 °F 35.8 °F 35.6 °F 81% 29.42 in 10.0 mi SE 8.1 mph - N/A   Mostly Cloudy
12:53 PM 41.0 °F 32.8 °F 35.6 °F 81% 29.45 in 10.0 mi SE 16.1 mph - N/A   Overcast
1:53 PM 41.0 °F 33.5 °F 35.6 °F 81% 29.46 in 10.0 mi SE 13.8 mph - N/A Rain Light Rain
2:53 PM 39.2 °F 31.6 °F 35.6 °F 87% 29.49 in 4.0 mi SE 12.7 mph - N/A Rain Light Rain
3:53 PM 39.0 °F 32.3 °F 36.0 °F 89% 29.49 in 10.0 mi SE 10.4 mph - 0.03 in Rain Light Rain
4:53 PM 41.0 °F 36.4 °F 37.0 °F 86% 29.49 in 10.0 mi SSE 6.9 mph - 0.01 in Rain Light Rain
5:53 PM 43.0 °F 36.4 °F 37.9 °F 82% 29.50 in 10.0 mi SE 12.7 mph - 0.01 in   Overcast
6:34 PM 43.0 °F 35.7 °F 36.0 °F 76% 29.51 in 10.0 mi SE 15.0 mph - 0.00 in   Overcast
6:53 PM 43.0 °F 35.7 °F 36.0 °F 76% 29.51 in 10.0 mi SE 15.0 mph 31.1 mph 0.00 in   Overcast
7:53 PM 43.0 °F 36.8 °F 35.1 °F 74% 29.54 in 10.0 mi SE 11.5 mph 23.0 mph 0.00 in Rain Light Rain
8:53 PM 43.0 °F 36.8 °F 37.0 °F 80% 29.56 in 10.0 mi SE 11.5 mph - 0.01 in   Overcast
9:53 PM 43.0 °F 36.8 °F 37.9 °F 82% 29.59 in 10.0 mi SSE 11.5 mph 20.7 mph 0.01 in Rain Light Rain
10:53 PM 41.0 °F 33.9 °F 37.9 °F 89% 29.60 in 10.0 mi SE 12.7 mph - 0.02 in Rain Light Rain
11:12 PM 37.9 °F 32.7 °F 35.1 °F 89% 29.61 in 2.5 mi South 6.9 mph - 0.08 in Rain Heavy Rain
11:22 PM 39.0 °F 33.4 °F 36.0 °F 89% 29.61 in 6.0 mi South 8.1 mph - 0.09 in Rain Light Rain
11:53 PM 41.0 °F 34.3 °F 37.0 °F 86% 29.62 in 10.0 mi SSE 11.5 mph - 0.09 in Rain Light Rain